Time,TemperatureF,DewpointF,PressureIn,WindDirection,WindDirectionDegrees,WindSpeedMPH,WindSpeedGustMPH,Humidity,HourlyPrecipIn,Conditions,Clouds,dailyrainin,SoftwareType,DateUTC
2013-04-13 00:00:00,58.7,58.5,30.09,East,90,0.0,0.0,100,-99.99,,,-99.99,WSDL version 420,2013-04-12 14:00:00,
2013-04-13 00:05:00,58.7,58.7,30.09,East,90,0.0,0.0,100,-99.99,,,-99.99,WSDL version 420,2013-04-12 14:05:00,
2013-04-13 00:10:00,58.6,58.6,30.09,WSW,254,0.0,0.0,100,-99.99,,,-99.99,WSDL version 420,2013-04-12 14:10:00,
2013-04-13 00:15:00,58.8,58.8,30.09,North,11,0.0,0.0,100,-99.99,,,-99.99,WSDL version 420,2013-04-12 14:15:00,
2013-04-13 00:25:00,58.9,58.8,30.09,ENE,68,0.0,0.0,100,-99.99,,,-99.99,WSDL version 420,2013-04-12 14:25:00,
2013-04-13 00:30:00,58.8,58.8,30.09,ENE,70,0.0,0.0,100,-99.99,,,-99.99,WSDL version 420,2013-04-12 14:30:00,
2013-04-13 00:35:00,58.8,58.8,30.09,NE,45,0.0,0.0,100,-99.99,,,-99.99,WSDL version 420,2013-04-12 14:35:00,
2013-04-13 00:40:00,58.7,58.7,30.09,West,270,0.0,0.0,100,-99.99,,,-99.99,WSDL version 420,2013-04-12 14:40:00,
2013-04-13 00:45:00,58.3,58.3,30.09,West,270,0.0,0.0,100,-99.99,,,-99.99,WSDL version 420,2013-04-12 14:45:00,
2013-04-13 00:50:00,58.0,58.0,30.09,WSW,255,0.0,0.0,100,-99.99,,,-99.99,WSDL version 420,2013-04-12 14:50:00,
2013-04-13 01:00:00,57.9,57.9,30.09,SW,225,0.0,0.0,100,-99.99,,,-99.99,WSDL version 420,2013-04-12 15:00:00,
2013-04-13 01:05:00,57.7,57.7,30.06,SW,225,0.0,0.0,100,-99.99,,,-99.99,WSDL version 420,2013-04-12 15:05:00,
2013-04-13 01:10:00,58.0,58.0,30.06,South,180,0.0,0.0,100,-99.99,,,-99.99,WSDL version 420,2013-04-12 15:10:00,
2013-04-13 01:15:00,58.2,58.2,30.06,South,180,0.0,0.0,100,-99.99,,,-99.99,WSDL version 420,2013-04-12 15:15:00,
2013-04-13 01:20:00,58.3,58.3,30.06,East,90,0.0,0.0,100,-99.99,,,-99.99,WSDL version 420,2013-04-12 15:20:00,
2013-04-13 01:25:00,58.3,58.3,30.06,East,90,0.0,0.0,100,-99.99,,,-99.99,WSDL version 420,2013-04-12 15:25:00,
2013-04-13 01:30:00,58.2,58.2,30.06,East,90,0.0,0.0,100,-99.99,,,-99.99,WSDL version 420,2013-04-12 15:30:00,
2013-04-13 01:35:00,58.1,58.1,30.06,South,170,0.0,0.0,100,-99.99,,,-99.99,WSDL version 420,2013-04-12 15:35:00,
2013-04-13 01:40:00,58.0,58.0,30.06,SSW,203,0.0,0.0,100,-99.99,,,-99.99,WSDL version 420,2013-04-12 15:40:00,
2013-04-13 01:45:00,57.9,57.9,30.06,SE,135,0.0,0.0,100,-99.99,,,-99.99,WSDL version 420,2013-04-12 15:45:00,
2013-04-13 01:50:00,57.9,57.9,30.06,SE,135,0.0,0.0,100,-99.99,,,-99.99,WSDL version 420,2013-04-12 15:50:00,
2013-04-13 01:55:00,57.8,57.8,30.06,SSW,195,0.0,0.0,100,-99.99,,,-99.99,WSDL version 420,2013-04-12 15:55:00,
2013-04-13 02:00:00,57.6,57.6,30.06,West,270,0.0,0.0,100,-99.99,,,-99.99,WSDL version 420,2013-04-12 16:00:00,
2013-04-13 02:05:00,57.6,57.6,30.06,West,270,0.0,0.0,100,-99.99,,,-99.99,WSDL version 420,2013-04-12 16:05:00,
2013-04-13 02:10:00,57.5,57.5,30.06,West,270,0.0,0.0,100,-99.99,,,-99.99,WSDL version 420,2013-04-12 16:10:00,
2013-04-13 02:15:00,57.3,57.3,30.06,West,270,0.0,0.0,100,-99.99,,,-99.99,WSDL version 420,2013-04-12 16:15:00,
2013-04-13 02:20:00,57.2,57.2,30.06,West,270,0.0,0.0,100,-99.99,,,-99.99,WSDL version 420,2013-04-12 16:20:00,
2013-04-13 02:25:00,56.9,56.9,30.06,West,270,0.0,0.0,100,-99.99,,,-99.99,WSDL version 420,2013-04-12 16:25:00,
2013-04-13 02:30:00,56.8,56.8,30.06,West,270,0.0,0.0,100,-99.99,,,-99.99,WSDL version 420,2013-04-12 16:30:00,
2013-04-13 02:35:00,56.8,56.8,30.03,West,270,0.0,0.0,100,-99.99,,,-99.99,WSDL version 420,2013-04-12 16:35:00,
2013-04-13 02:40:00,56.8,56.8,30.03,West,270,0.0,0.0,100,-99.99,,,-99.99,WSDL version 420,2013-04-12 16:40:00,
2013-04-13 02:45:00,56.8,56.8,30.03,West,270,0.0,0.0,100,-99.99,,,-99.99,WSDL version 420,2013-04-12 16:45:00,
2013-04-13 02:50:00,56.7,56.7,30.06,West,270,0.0,0.0,100,-99.99,,,-99.99,WSDL version 420,2013-04-12 16:50:00,
2013-04-13 02:55:00,56.7,56.7,30.06,West,270,0.0,0.0,100,-99.99,,,-99.99,WSDL version 420,2013-04-12 16:55:00,
2013-04-13 03:00:00,56.6,56.6,30.06,West,270,0.0,0.0,100,-99.99,,,-99.99,WSDL version 420,2013-04-12 17:00:00,
2013-04-13 03:05:00,56.6,56.6,30.03,West,270,0.0,0.0,100,-99.99,,,-99.99,WSDL version 420,2013-04-12 17:05:00,
2013-04-13 03:15:00,56.3,56.3,30.03,West,270,0.0,0.0,100,-99.99,,,-99.99,WSDL version 420,2013-04-12 17:15:00,
2013-04-13 03:20:00,56.4,56.4,30.03,SSW,203,0.0,0.0,100,-99.99,,,-99.99,WSDL version 420,2013-04-12 17:20:00,
2013-04-13 03:25:00,56.3,56.3,30.03,SSW,211,0.0,0.0,100,-99.99,,,-99.99,WSDL version 420,2013-04-12 17:25:00,
2013-04-13 03:30:00,56.5,56.5,30.03,SW,225,0.0,0.0,100,-99.99,,,-99.99,WSDL version 420,2013-04-12 17:30:00,
2013-04-13 03:35:00,56.3,56.3,30.03,SW,225,0.0,0.0,100,-99.99,,,-99.99,WSDL version 420,2013-04-12 17:35:00,
2013-04-13 03:40:00,56.4,56.4,30.03,SW,225,0.0,0.0,100,-99.99,,,-99.99,WSDL version 420,2013-04-12 17:40:00,
2013-04-13 03:50:00,56.7,56.7,30.03,SW,225,0.0,0.0,100,-99.99,,,-99.99,WSDL version 420,2013-04-12 17:50:00,
2013-04-13 03:55:00,56.6,56.6,30.03,SW,225,0.0,0.0,100,-99.99,,,-99.99,WSDL version 420,2013-04-12 17:55:00,
2013-04-13 04:05:00,56.5,56.5,30.03,West,270,0.0,0.0,100,-99.99,,,-99.99,WSDL version 420,2013-04-12 18:05:00,
2013-04-13 04:15:00,56.3,56.3,30.03,West,270,0.0,0.0,100,-99.99,,,-99.99,WSDL version 420,2013-04-12 18:15:00,
2013-04-13 04:20:00,56.5,56.5,30.03,West,270,0.0,0.0,100,-99.99,,,-99.99,WSDL version 420,2013-04-12 18:20:00,
2013-04-13 04:25:00,56.7,56.7,30.03,West,270,0.0,0.0,100,-99.99,,,-99.99,WSDL version 420,2013-04-12 18:25:00,
2013-04-13 04:30:00,56.6,56.6,30.03,West,270,0.0,0.0,100,-99.99,,,-99.99,WSDL version 420,2013-04-12 18:30:00,
2013-04-13 05:26:00,57.0,57.0,30.06,WSW,248,0.0,0.0,100,-99.99,,,-99.99,WSDL version 420,2013-04-12 19:26:00,
2013-04-13 05:31:00,57.0,57.0,30.06,WSW,248,0.0,0.0,100,-99.99,,,-99.99,WSDL version 420,2013-04-12 19:31:00,
2013-04-13 05:36:00,57.0,57.0,30.06,WSW,248,0.0,0.0,100,-99.99,,,-99.99,WSDL version 420,2013-04-12 19:36:00,
2013-04-13 05:41:00,57.1,57.1,30.06,WSW,248,0.0,0.0,100,-99.99,,,-99.99,WSDL version 420,2013-04-12 19:41:00,
2013-04-13 05:46:00,57.0,57.0,30.06,WSW,248,0.0,0.0,100,-99.99,,,-99.99,WSDL version 420,2013-04-12 19:46:00,
2013-04-13 05:51:00,56.8,56.8,30.03,WSW,248,0.0,0.0,100,-99.99,,,-99.99,WSDL version 420,2013-04-12 19:51:00,
2013-04-13 05:56:00,56.8,56.8,30.03,WSW,248,0.0,0.0,100,-99.99,,,-99.99,WSDL version 420,2013-04-12 19:56:00,
2013-04-13 06:01:00,-999.0,-99.9,30.03,WSW,248,0.0,0.0,-999,-99.99,,,-99.99,WSDL version 420,2013-04-12 20:01:00,
2013-04-13 06:06:00,56.7,56.7,30.03,WSW,248,0.0,0.0,100,-99.99,,,-99.99,WSDL version 420,2013-04-12 20:06:00,
2013-04-13 06:11:00,56.5,56.5,30.03,WSW,248,0.0,0.0,100,-99.99,,,-99.99,WSDL version 420,2013-04-12 20:11:00,
2013-04-13 06:16:00,56.5,56.5,30.03,SW,225,0.0,0.0,100,-99.99,,,-99.99,WSDL version 420,2013-04-12 20:16:00,
2013-04-13 06:22:00,56.3,56.3,30.03,WSW,248,0.0,0.0,100,-99.99,,,-99.99,WSDL version 420,2013-04-12 20:22:00,
2013-04-13 06:31:00,56.7,56.7,30.03,NNW,331,0.0,0.0,100,-99.99,,,-99.99,WSDL version 420,2013-04-12 20:31:00,
2013-04-13 06:37:00,56.7,56.7,30.03,WNW,293,0.0,0.0,100,-99.99,,,-99.99,WSDL version 420,2013-04-12 20:37:00,
2013-04-13 06:46:00,56.8,56.8,30.03,WNW,293,0.0,0.0,100,-99.99,,,-99.99,WSDL version 420,2013-04-12 20:46:00,
2013-04-13 06:51:00,57.0,57.0,30.03,West,270,0.0,0.0,100,-99.99,,,-99.99,WSDL version 420,2013-04-12 20:51:00,
2013-04-13 06:57:00,57.1,57.1,30.03,West,270,0.0,0.0,100,-99.99,,,-99.99,WSDL version 420,2013-04-12 20:57:00,
2013-04-13 07:02:00,57.4,57.4,30.03,West,270,0.0,0.0,100,-99.99,,,-99.99,WSDL version 420,2013-04-12 21:02:00,
2013-04-13 07:11:00,58.3,58.3,30.06,West,270,0.0,0.0,100,-99.99,,,-99.99,WSDL version 420,2013-04-12 21:11:00,
2013-04-13 07:17:00,59.6,59.6,30.06,West,270,0.0,0.0,100,-99.99,,,-99.99,WSDL version 420,2013-04-12 21:17:00,
2013-04-13 07:22:00,60.5,60.5,30.06,West,270,0.0,0.0,100,-99.99,,,-99.99,WSDL version 420,2013-04-12 21:22:00,
2013-04-13 07:31:00,61.9,61.9,30.06,ENE,61,0.0,0.0,100,-99.99,,,-99.99,WSDL version 420,2013-04-12 21:31:00,
2013-04-13 07:36:00,62.5,62.5,30.06,WNW,284,0.0,0.0,100,-99.99,,,-99.99,WSDL version 420,2013-04-12 21:36:00,
2013-04-13 07:41:00,63.5,63.5,30.06,NE,45,0.0,0.0,100,-99.99,,,-99.99,WSDL version 420,2013-04-12 21:41:00,
2013-04-13 07:46:00,64.4,64.4,30.06,NNW,331,0.0,0.0,100,-99.99,,,-99.99,WSDL version 420,2013-04-12 21:46:00,
2013-04-13 07:51:00,65.6,65.6,30.06,NW,321,0.0,0.0,100,-99.99,,,-99.99,WSDL version 420,2013-04-12 21:51:00,
2013-04-13 07:56:00,66.8,66.8,30.06,WNW,289,0.0,2.2,100,-99.99,,,-99.99,WSDL version 420,2013-04-12 21:56:00,
2013-04-13 08:01:00,67.1,67.1,30.06,NW,321,0.0,2.2,100,-99.99,,,-99.99,WSDL version 420,2013-04-12 22:01:00,
2013-04-13 08:06:00,66.5,66.5,30.06,WNW,293,0.9,2.2,100,-99.99,,,-99.99,WSDL version 420,2013-04-12 22:06:00,
2013-04-13 08:11:00,66.2,66.2,30.06,WNW,293,0.0,2.2,100,-99.99,,,-99.99,WSDL version 420,2013-04-12 22:11:00,
2013-04-13 08:16:00,66.1,66.1,30.06,WSW,252,2.0,4.0,100,-99.99,,,-99.99,WSDL version 420,2013-04-12 22:16:00,
2013-04-13 08:21:00,65.8,65.7,30.06,West,259,0.1,4.0,100,-99.99,,,-99.99,WSDL version 420,2013-04-12 22:21:00,
2013-04-13 08:27:00,65.5,65.4,30.06,West,276,1.1,3.1,99,-99.99,,,-99.99,WSDL version 420,2013-04-12 22:27:00,
2013-04-13 08:36:00,66.0,65.9,30.06,NE,48,0.0,0.0,99,-99.99,,,-99.99,WSDL version 420,2013-04-12 22:36:00,
2013-04-13 08:42:00,66.6,66.6,30.06,NNE,32,0.0,0.0,100,-99.99,,,-99.99,WSDL version 420,2013-04-12 22:42:00,
2013-04-13 08:51:00,68.9,68.5,30.06,NNE,32,0.0,1.1,98,-99.99,,,-99.99,WSDL version 420,2013-04-12 22:51:00,
2013-04-13 08:56:00,69.9,68.6,30.06,NNE,25,1.2,2.2,94,-99.99,,,-99.99,WSDL version 420,2013-04-12 22:56:00,
2013-04-13 09:02:00,70.5,67.2,30.06,NE,48,1.3,3.1,87,-99.99,,,-99.99,WSDL version 420,2013-04-12 23:02:00,
2013-04-13 09:11:00,72.8,65.6,30.06,North,11,1.8,3.1,73,-99.99,,,-99.99,WSDL version 420,2013-04-12 23:11:00,
2013-04-13 09:16:00,73.3,64.1,30.06,NE,53,2.1,3.6,71,-99.99,,,-99.99,WSDL version 420,2013-04-12 23:16:00,
2013-04-13 09:21:00,73.9,61.0,30.03,NE,45,1.6,3.6,65,-99.99,,,-99.99,WSDL version 420,2013-04-12 23:21:00,
2013-04-13 09:26:00,75.1,62.0,30.03,East,79,0.6,3.1,60,-99.99,,,-99.99,WSDL version 420,2013-04-12 23:26:00,
2013-04-13 09:31:00,77.0,63.4,30.03,NNW,345,0.7,2.9,61,-99.99,,,-99.99,WSDL version 420,2013-04-12 23:31:00,
2013-04-13 09:37:00,78.3,63.1,30.03,NNW,328,1.6,2.7,57,-99.99,,,-99.99,WSDL version 420,2013-04-12 23:37:00,
2013-04-13 09:47:00,79.1,59.7,30.03,North,11,1.3,3.8,53,-99.99,,,-99.99,WSDL version 420,2013-04-12 23:47:00,
2013-04-13 09:56:00,-999.0,-99.9,30.03,NW,312,3.2,6.5,-999,-99.99,,,-99.99,WSDL version 420,2013-04-12 23:56:00,
2013-04-13 10:01:00,81.7,57.9,30.03,NNE,13,2.8,6.5,43,-99.99,,,-99.99,WSDL version 420,2013-04-13 00:01:00,
2013-04-13 10:06:00,80.7,56.9,30.03,WNW,289,2.2,6.5,46,-99.99,,,-99.99,WSDL version 420,2013-04-13 00:06:00,
2013-04-13 10:11:00,80.5,56.9,30.03,NE,45,3.0,6.5,45,-99.99,,,-99.99,WSDL version 420,2013-04-13 00:11:00,
2013-04-13 10:16:00,79.7,56.7,30.03,East,90,2.3,5.4,46,-99.99,,,-99.99,WSDL version 420,2013-04-13 00:16:00,
2013-04-13 10:21:00,80.7,58.1,30.03,North,10,3.5,5.4,46,-99.99,,,-99.99,WSDL version 420,2013-04-13 00:21:00,
2013-04-13 10:26:00,81.1,57.5,30.03,North,360,2.9,7.4,44,-99.99,,,-99.99,WSDL version 420,2013-04-13 00:26:00,
2013-04-13 10:31:00,81.5,57.3,30.03,North,10,3.6,7.4,42,-99.99,,,-99.99,WSDL version 420,2013-04-13 00:31:00,
2013-04-13 10:36:00,82.1,58.1,30.00,NW,305,2.8,6.0,44,-99.99,,,-99.99,WSDL version 420,2013-04-13 00:36:00,
2013-04-13 10:41:00,83.1,58.3,30.00,WNW,289,2.8,6.0,43,-99.99,,,-99.99,WSDL version 420,2013-04-13 00:41:00,
2013-04-13 10:48:00,82.3,56.9,30.00,North,351,4.1,9.4,42,-99.99,,,-99.99,WSDL version 420,2013-04-13 00:48:00,
2013-04-13 10:53:00,80.7,56.5,30.00,NE,48,2.7,9.4,44,-99.99,,,-99.99,WSDL version 420,2013-04-13 00:53:00,
2013-04-13 10:58:00,81.0,56.6,30.00,ENE,68,3.2,8.1,43,-99.99,,,-99.99,WSDL version 420,2013-04-13 00:58:00,
2013-04-13 11:03:00,81.8,57.6,30.03,NNE,20,3.7,5.6,43,-99.99,,,-99.99,WSDL version 420,2013-04-13 01:03:00,
2013-04-13 11:08:00,82.0,57.3,30.03,East,86,3.0,7.2,42,-99.99,,,-99.99,WSDL version 420,2013-04-13 01:08:00,
2013-04-13 11:13:00,81.5,57.0,30.03,WNW,288,3.0,7.4,44,-99.99,,,-99.99,WSDL version 420,2013-04-13 01:13:00,
2013-04-13 11:18:00,83.1,57.8,30.03,NE,56,2.9,7.8,43,-99.99,,,-99.99,WSDL version 420,2013-04-13 01:18:00,
2013-04-13 11:23:00,83.6,56.9,30.03,NNE,30,4.3,8.1,41,-99.99,,,-99.99,WSDL version 420,2013-04-13 01:23:00,
2013-04-13 11:28:00,81.2,55.7,30.03,NNE,20,3.6,8.1,42,-99.99,,,-99.99,WSDL version 420,2013-04-13 01:28:00,
2013-04-13 11:33:00,80.5,56.0,30.03,North,360,3.5,6.3,43,-99.99,,,-99.99,WSDL version 420,2013-04-13 01:33:00,
2013-04-13 11:38:00,81.1,57.0,30.03,NW,326,3.7,7.8,43,-99.99,,,-99.99,WSDL version 420,2013-04-13 01:38:00,
2013-04-13 11:48:00,80.8,56.5,30.03,ENE,59,2.9,6.9,44,-99.99,,,-99.99,WSDL version 420,2013-04-13 01:48:00,
2013-04-13 11:53:00,79.5,56.0,30.03,NE,50,4.1,6.3,45,-99.99,,,-99.99,WSDL version 420,2013-04-13 01:53:00,
2013-04-13 11:58:00,79.2,56.2,30.03,East,90,2.9,6.0,45,-99.99,,,-99.99,WSDL version 420,2013-04-13 01:58:00,
2013-04-13 12:03:00,78.4,56.3,30.00,North,349,3.0,4.9,47,-99.99,,,-99.99,WSDL version 420,2013-04-13 02:03:00,
2013-04-13 12:08:00,77.9,56.2,30.00,ENE,64,4.2,6.0,48,-99.99,,,-99.99,WSDL version 420,2013-04-13 02:08:00,
2013-04-13 12:13:00,77.9,56.5,30.00,NNE,13,3.2,6.9,48,-99.99,,,-99.99,WSDL version 420,2013-04-13 02:13:00,
2013-04-13 12:18:00,78.6,57.3,29.97,NNE,32,2.6,6.9,48,-99.99,,,-99.99,WSDL version 420,2013-04-13 02:18:00,
2013-04-13 12:28:00,78.6,57.9,29.97,NNE,23,2.9,6.5,49,-99.99,,,-99.99,WSDL version 420,2013-04-13 02:28:00,
2013-04-13 12:33:00,78.9,57.7,29.97,East,84,3.9,4.9,48,-99.99,,,-99.99,WSDL version 420,2013-04-13 02:33:00,
2013-04-13 12:43:00,78.4,57.9,29.97,East,90,1.3,5.6,50,-99.99,,,-99.99,WSDL version 420,2013-04-13 02:43:00,
2013-04-13 12:48:00,78.7,57.8,29.97,ENE,68,2.4,5.6,49,-99.99,,,-99.99,WSDL version 420,2013-04-13 02:48:00,
2013-04-13 12:53:00,80.4,59.4,29.97,North,357,2.5,4.9,48,-99.99,,,-99.99,WSDL version 420,2013-04-13 02:53:00,
2013-04-13 12:58:00,80.6,57.9,29.97,NE,56,3.4,5.6,46,-99.99,,,-99.99,WSDL version 420,2013-04-13 02:58:00,
2013-04-13 13:03:00,80.0,58.1,29.97,NE,51,2.2,5.6,47,-99.99,,,-99.99,WSDL version 420,2013-04-13 03:03:00,
2013-04-13 13:08:00,81.5,59.0,29.97,NE,51,3.5,6.3,46,-99.99,,,-99.99,WSDL version 420,2013-04-13 03:08:00,
2013-04-13 13:13:00,81.8,58.4,29.97,NNE,23,2.4,8.7,44,-99.99,,,-99.99,WSDL version 420,2013-04-13 03:13:00,
2013-04-13 13:18:00,83.3,59.5,29.97,NNE,26,2.5,8.7,44,-99.99,,,-99.99,WSDL version 420,2013-04-13 03:18:00,
2013-04-13 13:23:00,83.8,59.4,29.97,ENE,64,3.2,5.8,43,-99.99,,,-99.99,WSDL version 420,2013-04-13 03:23:00,
2013-04-13 13:28:00,84.0,58.5,29.97,NW,305,2.4,5.8,42,-99.99,,,-99.99,WSDL version 420,2013-04-13 03:28:00,
2013-04-13 13:33:00,84.6,59.6,29.97,ESE,113,2.4,4.7,43,-99.99,,,-99.99,WSDL version 420,2013-04-13 03:33:00,
2013-04-13 13:38:00,84.3,59.5,29.97,East,84,3.9,7.4,44,-99.99,,,-99.99,WSDL version 420,2013-04-13 03:38:00,
2013-04-13 13:43:00,83.7,59.3,29.97,East,82,3.5,7.4,44,-99.99,,,-99.99,WSDL version 420,2013-04-13 03:43:00,
2013-04-13 13:53:00,83.1,59.7,29.94,East,97,2.8,8.1,46,-99.99,,,-99.99,WSDL version 420,2013-04-13 03:53:00,
2013-04-13 13:58:00,83.7,59.5,29.94,South,170,3.5,7.2,44,-99.99,,,-99.99,WSDL version 420,2013-04-13 03:58:00,
2013-04-13 14:03:00,83.5,59.6,29.94,East,86,3.6,7.2,44,-99.99,,,-99.99,WSDL version 420,2013-04-13 04:03:00,
2013-04-13 14:08:00,83.0,58.8,29.94,NE,56,3.6,6.5,44,-99.99,,,-99.99,WSDL version 420,2013-04-13 04:08:00,
2013-04-13 14:13:00,83.0,59.5,29.94,ENE,64,3.2,6.5,45,-99.99,,,-99.99,WSDL version 420,2013-04-13 04:13:00,
2013-04-13 14:18:00,82.5,59.6,29.94,East,86,2.8,6.5,47,-99.99,,,-99.99,WSDL version 420,2013-04-13 04:18:00,
2013-04-13 14:23:00,82.0,58.8,29.94,NE,34,5.3,11.0,46,-99.99,,,-99.99,WSDL version 420,2013-04-13 04:23:00,
2013-04-13 14:28:00,81.6,58.8,29.94,NE,45,4.0,11.0,46,-99.99,,,-99.99,WSDL version 420,2013-04-13 04:28:00,
2013-04-13 14:33:00,81.9,59.5,29.94,SE,125,3.9,7.8,46,-99.99,,,-99.99,WSDL version 420,2013-04-13 04:33:00,
2013-04-13 14:38:00,-999.0,-99.9,29.94,East,84,4.9,7.2,-999,-99.99,,,-99.99,WSDL version 420,2013-04-13 04:38:00,
2013-04-13 14:43:00,82.2,59.9,29.94,NNW,338,2.6,6.7,47,-99.99,,,-99.99,WSDL version 420,2013-04-13 04:43:00,
2013-04-13 14:48:00,83.3,60.2,29.94,NE,34,2.9,6.3,45,-99.99,,,-99.99,WSDL version 420,2013-04-13 04:48:00,
2013-04-13 14:53:00,82.3,59.0,29.94,NNE,23,4.6,10.7,46,-99.99,,,-99.99,WSDL version 420,2013-04-13 04:53:00,
2013-04-13 14:58:00,82.3,58.9,29.94,NE,39,4.2,10.7,45,-99.99,,,-99.99,WSDL version 420,2013-04-13 04:58:00,
2013-04-13 15:03:00,81.6,58.9,29.94,NNE,23,3.5,8.7,46,-99.99,,,-99.99,WSDL version 420,2013-04-13 05:03:00,
2013-04-13 15:08:00,81.5,59.8,29.94,South,174,2.8,7.8,48,-99.99,,,-99.99,WSDL version 420,2013-04-13 05:08:00,
2013-04-13 15:13:00,81.7,59.6,29.94,ENE,61,5.3,8.1,47,-99.99,,,-99.99,WSDL version 420,2013-04-13 05:13:00,
2013-04-13 15:18:00,80.9,59.0,29.94,North,10,3.3,8.7,48,-99.99,,,-99.99,WSDL version 420,2013-04-13 05:18:00,
2013-04-13 15:23:00,80.6,58.5,29.94,NE,52,6.1,12.5,47,-99.99,,,-99.99,WSDL version 420,2013-04-13 05:23:00,
2013-04-13 15:28:00,80.3,58.6,29.94,ENE,68,3.8,12.5,48,-99.99,,,-99.99,WSDL version 420,2013-04-13 05:28:00,
2013-04-13 15:33:00,80.2,59.1,29.94,ENE,68,3.9,8.1,49,-99.99,,,-99.99,WSDL version 420,2013-04-13 05:33:00,
2013-04-13 15:38:00,80.0,59.7,29.94,ENE,73,4.0,8.1,50,-99.99,,,-99.99,WSDL version 420,2013-04-13 05:38:00,
2013-04-13 15:43:00,79.9,59.7,29.94,ENE,65,3.9,9.2,50,-99.99,,,-99.99,WSDL version 420,2013-04-13 05:43:00,
2013-04-13 15:48:00,79.6,59.7,29.91,ESE,105,3.6,9.2,51,-99.99,,,-99.99,WSDL version 420,2013-04-13 05:48:00,
2013-04-13 15:53:00,79.4,60.2,29.91,North,3,3.3,9.4,52,-99.99,,,-99.99,WSDL version 420,2013-04-13 05:53:00,
2013-04-13 15:58:00,79.7,60.2,29.91,NNE,32,4.6,9.4,51,-99.99,,,-99.99,WSDL version 420,2013-04-13 05:58:00,
2013-04-13 16:03:00,79.9,60.6,29.91,NE,34,3.3,7.4,52,-99.99,,,-99.99,WSDL version 420,2013-04-13 06:03:00,
2013-04-13 16:08:00,79.4,59.8,29.91,NE,37,3.1,9.8,52,-99.99,,,-99.99,WSDL version 420,2013-04-13 06:08:00,
2013-04-13 16:13:00,79.0,59.7,29.91,NE,45,3.3,9.8,52,-99.99,,,-99.99,WSDL version 420,2013-04-13 06:13:00,
2013-04-13 16:18:00,78.8,59.7,29.91,NNE,19,3.8,6.0,52,-99.99,,,-99.99,WSDL version 420,2013-04-13 06:18:00,
2013-04-13 16:23:00,78.4,59.5,29.91,East,82,4.9,8.5,53,-99.99,,,-99.99,WSDL version 420,2013-04-13 06:23:00,
2013-04-13 16:28:00,78.0,59.6,29.91,ENE,58,5.4,8.5,54,-99.99,,,-99.99,WSDL version 420,2013-04-13 06:28:00,
2013-04-13 16:33:00,77.5,59.8,29.91,NE,53,4.1,8.5,55,-99.99,,,-99.99,WSDL version 420,2013-04-13 06:33:00,
2013-04-13 16:38:00,77.0,59.5,29.91,NE,42,5.5,8.9,56,-99.99,,,-99.99,WSDL version 420,2013-04-13 06:38:00,
2013-04-13 16:43:00,76.6,60.3,29.91,East,90,2.8,8.9,57,-99.99,,,-99.99,WSDL version 420,2013-04-13 06:43:00,
2013-04-13 16:48:00,76.5,60.3,29.91,ESE,113,3.6,7.6,58,-99.99,,,-99.99,WSDL version 420,2013-04-13 06:48:00,
2013-04-13 16:58:00,75.6,60.2,29.91,NNE,32,3.4,8.5,59,-99.99,,,-99.99,WSDL version 420,2013-04-13 06:58:00,
2013-04-13 17:03:00,75.2,60.1,29.91,NE,35,4.6,7.6,60,-99.99,,,-99.99,WSDL version 420,2013-04-13 07:03:00,
2013-04-13 17:08:00,74.5,60.2,29.91,ENE,68,3.4,9.8,61,-99.99,,,-99.99,WSDL version 420,2013-04-13 07:08:00,
2013-04-13 17:13:00,73.8,60.4,29.91,NE,56,3.1,9.8,64,-99.99,,,-99.99,WSDL version 420,2013-04-13 07:13:00,
2013-04-13 17:25:00,72.4,60.6,29.91,East,79,2.7,7.2,67,-99.99,,,-99.99,WSDL version 420,2013-04-13 07:25:00,
2013-04-13 17:30:00,72.1,60.5,29.91,North,360,2.6,7.2,67,-99.99,,,-99.99,WSDL version 420,2013-04-13 07:30:00,
2013-04-13 17:35:00,71.7,60.5,29.91,North,360,1.8,3.6,68,-99.99,,,-99.99,WSDL version 420,2013-04-13 07:35:00,
2013-04-13 17:45:00,71.2,60.8,29.91,North,4,1.9,6.3,70,-99.99,,,-99.99,WSDL version 420,2013-04-13 07:45:00,
2013-04-13 17:50:00,71.0,60.7,29.91,NNE,28,1.0,4.0,70,-99.99,,,-99.99,WSDL version 420,2013-04-13 07:50:00,
2013-04-13 17:55:00,70.7,60.4,29.91,ENE,77,1.2,4.0,70,-99.99,,,-99.99,WSDL version 420,2013-04-13 07:55:00,
2013-04-13 18:02:00,70.4,61.2,29.91,SE,132,2.3,5.4,73,-99.99,,,-99.99,WSDL version 420,2013-04-13 08:02:00,
2013-04-13 18:07:00,70.2,60.9,29.91,ESE,113,1.9,3.6,72,-99.99,,,-99.99,WSDL version 420,2013-04-13 08:07:00,
2013-04-13 18:12:00,70.1,61.2,29.91,NNE,17,2.1,3.1,74,-99.99,,,-99.99,WSDL version 420,2013-04-13 08:12:00,
2013-04-13 18:17:00,70.0,61.5,29.91,ENE,74,2.6,3.6,75,-99.99,,,-99.99,WSDL version 420,2013-04-13 08:17:00,
2013-04-13 18:24:00,69.8,61.1,29.88,NNW,335,0.0,3.6,74,-99.99,,,-99.99,WSDL version 420,2013-04-13 08:24:00,
2013-04-13 18:29:00,69.6,61.6,29.88,NNW,345,1.9,3.6,76,-99.99,,,-99.99,WSDL version 420,2013-04-13 08:29:00,
2013-04-13 18:34:00,69.5,61.7,29.91,ENE,74,2.3,3.6,77,-99.99,,,-99.99,WSDL version 420,2013-04-13 08:34:00,
2013-04-13 18:41:00,69.4,62.2,29.91,ENE,65,1.9,4.3,77,-99.99,,,-99.99,WSDL version 420,2013-04-13 08:41:00,
2013-04-13 18:46:00,69.3,62.2,29.91,East,90,2.0,4.3,78,-99.99,,,-99.99,WSDL version 420,2013-04-13 08:46:00,
2013-04-13 18:56:00,69.0,61.5,29.91,ESE,103,0.3,3.8,77,-99.99,,,-99.99,WSDL version 420,2013-04-13 08:56:00,
2013-04-13 19:03:00,68.6,61.1,29.91,East,94,0.0,2.9,77,-99.99,,,-99.99,WSDL version 420,2013-04-13 09:03:00,
2013-04-13 19:08:00,68.2,60.7,29.91,West,264,0.0,2.0,77,-99.99,,,-99.99,WSDL version 420,2013-04-13 09:08:00,
2013-04-13 19:13:00,67.9,60.5,29.91,North,6,1.2,3.6,78,-99.99,,,-99.99,WSDL version 420,2013-04-13 09:13:00,
2013-04-13 19:18:00,67.8,60.7,29.91,North,3,1.4,4.3,78,-99.99,,,-99.99,WSDL version 420,2013-04-13 09:18:00,
2013-04-13 19:23:00,67.8,61.4,29.91,ESE,113,1.5,4.3,80,-99.99,,,-99.99,WSDL version 420,2013-04-13 09:23:00,
2013-04-13 19:28:00,67.7,61.3,29.91,NNE,14,0.9,3.8,80,-99.99,,,-99.99,WSDL version 420,2013-04-13 09:28:00,
2013-04-13 19:33:00,67.6,61.4,29.91,East,83,2.2,4.0,81,-99.99,,,-99.99,WSDL version 420,2013-04-13 09:33:00,
2013-04-13 19:38:00,67.5,61.1,29.91,East,98,0.1,4.0,80,-99.99,,,-99.99,WSDL version 420,2013-04-13 09:38:00,
2013-04-13 19:43:00,67.3,60.9,29.91,ESE,103,0.7,2.5,80,-99.99,,,-99.99,WSDL version 420,2013-04-13 09:43:00,
2013-04-13 19:50:00,67.2,60.9,29.91,SE,146,0.7,3.4,80,-99.99,,,-99.99,WSDL version 420,2013-04-13 09:50:00,
2013-04-13 19:56:00,67.0,60.4,29.91,ESE,116,1.2,2.0,80,-99.99,,,-99.99,WSDL version 420,2013-04-13 09:56:00,
2013-04-13 20:01:00,66.7,60.4,29.91,East,80,1.2,2.0,80,-99.99,,,-99.99,WSDL version 420,2013-04-13 10:01:00,
2013-04-13 20:06:00,66.9,61.1,29.91,NE,48,1.9,3.8,82,-99.99,,,-99.99,WSDL version 420,2013-04-13 10:06:00,
2013-04-13 20:11:00,66.9,61.3,29.91,East,96,1.3,3.8,82,-99.99,,,-99.99,WSDL version 420,2013-04-13 10:11:00,
2013-04-13 20:21:00,66.8,61.2,29.91,North,360,1.2,3.1,82,-99.99,,,-99.99,WSDL version 420,2013-04-13 10:21:00,
2013-04-13 20:31:00,66.6,61.0,29.91,NNW,344,0.8,3.4,82,-99.99,,,-99.99,WSDL version 420,2013-04-13 10:31:00,
2013-04-13 20:38:00,66.5,61.3,29.91,ENE,71,0.0,3.4,83,-99.99,,,-99.99,WSDL version 420,2013-04-13 10:38:00,
2013-04-13 20:45:00,66.2,61.3,29.91,ESE,107,0.8,3.6,84,-99.99,,,-99.99,WSDL version 420,2013-04-13 10:45:00,
2013-04-13 20:52:00,66.1,61.6,29.91,SE,135,0.0,2.0,86,-99.99,,,-99.99,WSDL version 420,2013-04-13 10:52:00,
2013-04-13 20:59:00,65.8,61.4,29.91,SSE,154,1.2,2.5,86,-99.99,,,-99.99,WSDL version 420,2013-04-13 10:59:00,
2013-04-13 21:04:00,65.8,61.8,29.91,SE,145,1.3,2.5,88,-99.99,,,-99.99,WSDL version 420,2013-04-13 11:04:00,
2013-04-13 21:14:00,65.4,61.6,29.91,SE,135,0.3,2.0,88,-99.99,,,-99.99,WSDL version 420,2013-04-13 11:14:00,
2013-04-13 21:19:00,65.2,61.5,29.88,SW,235,0.0,2.0,88,-99.99,,,-99.99,WSDL version 420,2013-04-13 11:19:00,
2013-04-13 21:24:00,65.1,61.4,29.88,SSW,193,0.0,2.5,88,-99.99,,,-99.99,WSDL version 420,2013-04-13 11:24:00,
2013-04-13 21:29:00,65.0,61.3,29.88,SE,127,0.0,2.5,88,-99.99,,,-99.99,WSDL version 420,2013-04-13 11:29:00,
2013-04-13 21:39:00,64.6,61.3,29.88,South,174,0.0,1.3,89,-99.99,,,-99.99,WSDL version 420,2013-04-13 11:39:00,
2013-04-13 21:44:00,64.4,61.1,29.88,SE,143,0.0,1.3,89,-99.99,,,-99.99,WSDL version 420,2013-04-13 11:44:00,
2013-04-13 21:49:00,64.4,61.1,29.88,East,100,0.8,1.3,89,-99.99,,,-99.99,WSDL version 420,2013-04-13 11:49:00,
2013-04-13 21:56:00,64.2,61.2,29.88,SE,131,0.0,1.3,90,-99.99,,,-99.99,WSDL version 420,2013-04-13 11:56:00,
2013-04-13 22:02:00,64.2,61.2,29.91,SE,145,0.3,1.6,90,-99.99,,,-99.99,WSDL version 420,2013-04-13 12:02:00,
2013-04-13 22:07:00,64.2,61.4,29.91,SSE,154,0.0,1.6,91,-99.99,,,-99.99,WSDL version 420,2013-04-13 12:07:00,
2013-04-13 22:12:00,64.2,61.6,29.91,SSE,158,0.4,1.6,91,-99.99,,,-99.99,WSDL version 420,2013-04-13 12:12:00,
2013-04-13 22:19:00,64.0,61.1,29.94,ENE,76,0.0,1.1,90,-99.99,,,-99.99,WSDL version 420,2013-04-13 12:19:00,
2013-04-13 22:24:00,63.6,61.0,29.94,SE,141,0.0,1.1,91,-99.99,,,-99.99,WSDL version 420,2013-04-13 12:24:00,
2013-04-13 22:29:00,63.5,60.9,29.94,SSE,161,0.4,1.6,91,-99.99,,,-99.99,WSDL version 420,2013-04-13 12:29:00,
2013-04-13 22:34:00,63.5,61.1,-100.00,SE,140,0.0,1.6,92,-99.99,,,-99.99,WSDL version 420,2013-04-13 12:34:00,
2013-04-13 22:39:00,63.4,61.1,29.91,ESE,113,0.0,0.0,92,-99.99,,,-99.99,WSDL version 420,2013-04-13 12:39:00,
2013-04-13 22:44:00,63.4,61.1,29.91,ESE,110,0.0,0.0,92,-99.99,,,-99.99,WSDL version 420,2013-04-13 12:44:00,
2013-04-13 22:49:00,-999.0,-99.9,29.91,SW,225,0.0,1.3,-999,-99.99,,,-99.99,WSDL version 420,2013-04-13 12:49:00,
2013-04-13 22:54:00,62.9,60.6,29.91,West,276,0.0,1.3,92,-99.99,,,-99.99,WSDL version 420,2013-04-13 12:54:00,
2013-04-13 22:59:00,62.5,60.2,29.91,SSW,212,0.0,0.9,92,-99.99,,,-99.99,WSDL version 420,2013-04-13 12:59:00,
2013-04-13 23:04:00,62.3,60.2,29.91,NE,48,0.0,0.0,93,-99.99,,,-99.99,WSDL version 420,2013-04-13 13:04:00,
2013-04-13 23:09:00,62.1,60.2,29.91,West,270,0.0,0.0,93,-99.99,,,-99.99,WSDL version 420,2013-04-13 13:09:00,
2013-04-13 23:14:00,61.8,59.8,29.91,WNW,284,0.0,0.0,93,-99.99,,,-99.99,WSDL version 420,2013-04-13 13:14:00,
2013-04-13 23:19:00,61.3,59.5,29.91,WNW,293,0.0,0.0,94,-99.99,,,-99.99,WSDL version 420,2013-04-13 13:19:00,
2013-04-13 23:29:00,60.7,59.3,29.91,WNW,293,0.0,0.0,96,-99.99,,,-99.99,WSDL version 420,2013-04-13 13:29:00,
2013-04-13 23:39:00,60.5,59.6,29.91,West,270,0.0,0.0,97,-99.99,,,-99.99,WSDL version 420,2013-04-13 13:39:00,
2013-04-13 23:46:00,60.4,59.4,29.91,West,270,0.0,0.0,97,-99.99,,,-99.99,WSDL version 420,2013-04-13 13:46:00,
2013-04-13 23:51:00,-999.0,-99.9,29.91,West,270,0.0,0.0,-999,-99.99,,,-99.99,WSDL version 420,2013-04-13 13:51:00,